| time (UTC) | temp F | wind direction | speed MPH | gust MPH | rain 1hr in | rain 24hr in | rain mn in | humidity % | barometer mb |
| 20260506071022 | 47 | 329 | 2.0 | 3.0 | 0.03 | 0.54 | 0.28 | 96 | 1014.2 |
| 20260506062023 | 47 | 273 | 2.0 | 3.0 | 0.02 | 0.53 | 0.26 | 96 | 1013.4 |
| 20260506061023 | 47 | 1 | 2.0 | 3.0 | 0.01 | 0.52 | 0.25 | 96 | 1013.5 |
| 20260506051024 | 47 | 289 | 2.0 | 3.0 | 0.02 | 0.50 | 0.24 | 96 | 1013.5 |
| 20260506045024 | 47 | 315 | 2.0 | 3.0 | 0.01 | 0.49 | 0.23 | 95 | 1013.2 |
| 20260506044104 | 47 | 340 | 2.0 | 3.0 | 0.01 | 0.49 | 0.23 | 95 | 1013.2 |
| 20260506043024 | 47 | 306 | 2.0 | 3.0 | 0.01 | 0.49 | 0.22 | 95 | 1013.7 |
| 20260506042104 | 46 | 269 | 2.0 | 3.0 | 0.01 | 0.49 | 0.22 | 95 | 1013.5 |
| 20260506041025 | 46 | 316 | 2.0 | 2.0 | 0.01 | 0.48 | 0.22 | 95 | 1013.5 |
| 20260506040025 | 46 | 293 | 2.0 | 2.0 | 0.00 | 0.48 | 0.21 | 95 | 1013.6 |
| 20260506035025 | 46 | 313 | 2.0 | 2.0 | 0.00 | 0.48 | 0.21 | 95 | 1013.7 |
| 20260506034025 | 46 | 316 | 2.0 | 2.0 | 0.00 | 0.48 | 0.21 | 95 | 1013.7 |
| 20260506033027 | 46 | 271 | 2.0 | 2.0 | 0.00 | 0.48 | 0.21 | 95 | 1013.2 |
| 20260506032025 | 46 | 267 | 2.0 | 2.0 | 0.00 | 0.48 | 0.21 | 95 | 1013.1 |
| 20260506031105 | 46 | 297 | 1.0 | 2.0 | 0.02 | 0.48 | 0.21 | 95 | 1013.0 |
| 20260506030025 | 46 | 346 | 2.0 | 3.0 | 0.02 | 0.48 | 0.21 | 95 | 1012.6 |
| 20260506025026 | 46 | 13 | 2.0 | 3.0 | 0.04 | 0.48 | 0.21 | 95 | 1012.6 |
| 20260506024025 | 46 | 3 | 2.0 | 3.0 | 0.06 | 0.48 | 0.21 | 95 | 1013.0 |
| 20260506023026 | 46 | 359 | 2.0 | 3.0 | 0.07 | 0.48 | 0.21 | 95 | 1012.7 |
| 20260506022026 | 46 | 18 | 2.0 | 2.0 | 0.08 | 0.48 | 0.21 | 94 | 1012.7 |
| 20260506021026 | 46 | 276 | 2.0 | 3.0 | 0.07 | 0.46 | 0.20 | 94 | 1013.1 |
| 20260506015026 | 46 | 296 | 1.0 | 3.0 | 0.09 | 0.44 | 0.17 | 94 | 1012.9 |
| 20260506014026 | 46 | 44 | 2.0 | 3.0 | 0.08 | 0.42 | 0.16 | 94 | 1012.0 |
| 20260506013106 | 46 | 341 | 2.0 | 3.0 | 0.07 | 0.41 | 0.14 | 94 | 1012.6 |
| 20260506011027 | 46 | 324 | 2.0 | 4.0 | 0.05 | 0.39 | 0.13 | 93 | 1012.2 |
| 20260506010107 | 46 | 355 | 2.0 | 4.0 | 0.02 | 0.36 | 0.10 | 93 | 1011.9 |
| 20260506005026 | 47 | 308 | 2.0 | 3.0 | 0.01 | 0.35 | 0.09 | 93 | 1012.1 |
| 20260506004027 | 47 | 326 | 2.0 | 3.0 | 0.01 | 0.34 | 0.08 | 93 | 1011.7 |
| 20260506003027 | 47 | 345 | 2.0 | 3.0 | 0.01 | 0.34 | 0.08 | 93 | 1011.8 |
| 20260506002107 | 47 | 338 | 3.0 | 4.0 | 0.06 | 0.34 | 0.08 | 93 | 1011.6 |
| 20260506001023 | 48 | 329 | 2.0 | 5.0 | 0.08 | 0.34 | 0.08 | 92 | 1011.3 |
| 20260506000029 | 48 | 12 | 3.0 | 4.0 | 0.07 | 0.34 | 0.07 | 92 | 1011.5 |
| 20260505235017 | 48 | 327 | 3.0 | 5.0 | 0.07 | 0.34 | 0.07 | 92 | 1011.1 |
| 20260505234057 | 49 | 356 | 3.0 | 5.0 | 0.07 | 0.33 | 0.07 | 91 | 1010.9 |
| 20260505233017 | 49 | 341 | 4.0 | 6.0 | 0.07 | 0.33 | 0.07 | 91 | 1011.0 |
| 20260505232018 | 49 | 345 | 3.0 | 5.0 | 0.02 | 0.29 | 0.02 | 90 | 1010.9 |
| 20260505231023 | 49 | 4 | 3.0 | 6.0 | 0.00 | 0.26 | 0.00 | 89 | 1010.5 |
| 20260505230027 | 49 | 278 | 2.0 | 3.0 | 0.00 | 0.26 | 0.00 | 89 | 1010.7 |
| 20260505225027 | 50 | 3 | 3.0 | 4.0 | 0.00 | 0.26 | 0.26 | 89 | 1010.4 |
| 20260505224028 | 50 | 31 | 2.0 | 3.0 | 0.00 | 0.26 | 0.26 | 89 | 1009.9 |
| 20260505223028 | 49 | 357 | 3.0 | 4.0 | 0.00 | 0.26 | 0.26 | 89 | 1010.5 |
| 20260505222028 | 49 | 13 | 3.0 | 4.0 | 0.00 | 0.26 | 0.26 | 89 | 1010.5 |
| 20260505221018 | 49 | 355 | 3.0 | 7.0 | 0.00 | 0.26 | 0.26 | 89 | 1010.3 |
| 20260505220108 | 49 | 17 | 3.0 | 4.0 | 0.00 | 0.26 | 0.26 | 89 | 1010.3 |
| 20260505215028 | 49 | 310 | 3.0 | 4.0 | 0.01 | 0.26 | 0.26 | 90 | 1010.6 |
| 20260505214028 | 49 | 355 | 3.0 | 4.0 | 0.01 | 0.26 | 0.26 | 90 | 1010.6 |
| 20260505213109 | 49 | 349 | 3.0 | 5.0 | 0.01 | 0.26 | 0.26 | 90 | 1010.3 |
| 20260505212029 | 49 | 1 | 3.0 | 5.0 | 0.01 | 0.26 | 0.26 | 90 | 1010.8 |
| 20260505211029 | 49 | 317 | 3.0 | 4.0 | 0.01 | 0.26 | 0.26 | 89 | 1011.2 |
| 20260505210028 | 50 | 352 | 3.0 | 5.0 | 0.02 | 0.26 | 0.26 | 88 | 1011.2 |
| 20260505205018 | 50 | 14 | 4.0 | 8.0 | 0.01 | 0.26 | 0.26 | 87 | 1011.2 |
| 20260505204018 | 50 | 15 | 4.0 | 6.0 | 0.01 | 0.25 | 0.25 | 87 | 1011.0 |
| 20260505203109 | 50 | 318 | 3.0 | 4.0 | 0.00 | 0.25 | 0.25 | 86 | 1010.8 |
| 20260505202029 | 50 | 318 | 2.0 | 4.0 | 0.00 | 0.25 | 0.25 | 85 | 1011.0 |
| 20260505201019 | 51 | 340 | 3.0 | 5.0 | 0.00 | 0.25 | 0.25 | 83 | 1011.3 |
| 20260505200059 | 51 | 314 | 4.0 | 6.0 | 0.00 | 0.25 | 0.25 | 82 | 1011.2 |
| 20260505195019 | 52 | 341 | 4.0 | 7.0 | 0.00 | 0.25 | 0.25 | 81 | 1011.3 |
| 20260505194019 | 52 | 285 | 3.0 | 6.0 | 0.00 | 0.25 | 0.25 | 80 | 1011.3 |
| 20260505193059 | 53 | 356 | 4.0 | 7.0 | 0.00 | 0.25 | 0.25 | 79 | 1011.1 |
| 20260505192019 | 53 | 310 | 3.0 | 6.0 | 0.00 | 0.25 | 0.25 | 77 | 1010.8 |
| 20260505191019 | 53 | 354 | 5.0 | 9.0 | 0.00 | 0.25 | 0.25 | 75 | 1010.8 |
| 20260505190020 | 53 | 297 | 4.0 | 7.0 | 0.00 | 0.26 | 0.25 | 77 | 1010.7 |
| 20260505185020 | 53 | 304 | 4.0 | 6.0 | 0.00 | 0.27 | 0.25 | 77 | 1010.9 |
| 20260505184020 | 53 | 298 | 5.0 | 6.0 | 0.00 | 0.27 | 0.25 | 77 | 1011.3 |
| 20260505183101 | 53 | 349 | 4.0 | 7.0 | 0.00 | 0.35 | 0.25 | 78 | 1011.1 |
| 20260505182020 | 53 | 302 | 4.0 | 7.0 | 0.00 | 0.37 | 0.25 | 78 | 1011.4 |
| 20260505181020 | 54 | 355 | 6.0 | 8.0 | 0.00 | 0.37 | 0.25 | 78 | 1011.5 |
| 20260505180020 | 54 | 283 | 5.0 | 7.0 | 0.01 | 0.37 | 0.25 | 78 | 1011.4 |
| 20260505175101 | 54 | 302 | 6.0 | 9.0 | 0.01 | 0.37 | 0.25 | 76 | 1011.5 |
| 20260505174021 | 54 | 240 | 5.0 | 8.0 | 0.01 | 0.37 | 0.25 | 77 | 1011.3 |
| 20260505173021 | 55 | 250 | 5.0 | 8.0 | 0.01 | 0.37 | 0.25 | 77 | 1011.4 |
| 20260505172021 | 55 | 239 | 5.0 | 7.0 | 0.01 | 0.37 | 0.25 | 77 | 1011.2 |
| 20260505171021 | 56 | 263 | 5.0 | 7.0 | 0.01 | 0.37 | 0.24 | 74 | 1010.8 |
| 20260505170021 | 56 | 1 | 5.0 | 7.0 | 0.00 | 0.36 | 0.24 | 73 | 1010.6 |
| 20260505165101 | 56 | 268 | 4.0 | 6.0 | 0.00 | 0.36 | 0.24 | 71 | 1010.7 |
| 20260505164021 | 56 | 341 | 5.0 | 8.0 | 0.00 | 0.36 | 0.24 | 71 | 1010.9 |
| 20260505163101 | 56 | 25 | 5.0 | 7.0 | 0.00 | 0.36 | 0.24 | 71 | 1010.7 |
| 20260505162027 | 56 | 235 | 6.0 | 8.0 | 0.00 | 0.36 | 0.24 | 71 | 1010.8 |
| 20260505161022 | 55 | 239 | 6.0 | 9.0 | 0.00 | 0.36 | 0.24 | 70 | 1010.9 |
| 20260505153102 | 54 | 18 | 4.0 | 9.0 | 0.00 | 0.36 | 0.24 | 75 | 1010.3 |
| 20260505152022 | 53 | 321 | 6.0 | 9.0 | 0.00 | 0.36 | 0.24 | 76 | 1009.9 |
| 20260505151022 | 53 | 282 | 5.0 | 8.0 | 0.00 | 0.36 | 0.24 | 79 | 1009.9 |
| 20260505125021 | 51 | 277 | 2.0 | 3.0 | 0.05 | 0.31 | 0.18 | 88 | 1010.8 |
| 20260505124020 | 51 | 12 | 3.0 | 4.0 | 0.01 | 0.27 | 0.15 | 87 | 1010.6 |
| 20260505123024 | 52 | 348 | 3.0 | 7.0 | 0.02 | 0.27 | 0.15 | 87 | 1010.5 |
| 20260505122024 | 53 | 317 | 3.0 | 5.0 | 0.02 | 0.27 | 0.15 | 87 | 1010.3 |
| 20260505121101 | 53 | 310 | 3.0 | 4.0 | 0.02 | 0.27 | 0.15 | 87 | 1010.2 |
| 20260505120018 | 54 | 13 | 3.0 | 5.0 | 0.02 | 0.27 | 0.14 | 86 | 1010.0 |
| 20260505115018 | 54 | 359 | 4.0 | 5.0 | 0.01 | 0.27 | 0.14 | 85 | 1009.7 |
| 20260505114018 | 55 | 339 | 3.0 | 5.0 | 0.01 | 0.26 | 0.13 | 84 | 1009.2 |
| 20260505113018 | 55 | 339 | 3.0 | 5.0 | 0.00 | 0.25 | 0.13 | 84 | 1008.7 |
| 20260505112021 | 56 | 329 | 3.0 | 5.0 | 0.00 | 0.25 | 0.13 | 86 | 1008.3 |
| 20260505111018 | 57 | 322 | 4.0 | 7.0 | 0.00 | 0.25 | 0.13 | 90 | 1008.0 |
| 20260505102019 | 60 | 301 | 6.0 | 8.0 | 0.10 | 0.25 | 0.13 | 89 | 1007.8 |
| 20260505101019 | 60 | 264 | 5.0 | 7.0 | 0.10 | 0.25 | 0.13 | 88 | 1007.7 |
| 20260505100019 | 61 | 305 | 3.0 | 6.0 | 0.10 | 0.25 | 0.13 | 86 | 1007.6 |
| 20260505095019 | 62 | 348 | 3.0 | 5.0 | 0.03 | 0.17 | 0.05 | 86 | 1007.3 |
| 20260505094022 | 62 | 341 | 2.0 | 3.0 | 0.00 | 0.15 | 0.02 | 87 | 1006.9 |
| 20260505093059 | 62 | 298 | 2.0 | 3.0 | 0.00 | 0.15 | 0.02 | 85 | 1006.6 |
| 20260505092019 | 63 | 309 | 2.0 | 3.0 | 0.00 | 0.15 | 0.02 | 83 | 1006.7 |
| 20260505091020 | 63 | 291 | 1.0 | 2.0 | 0.00 | 0.15 | 0.02 | 79 | 1006.6 |
| 20260505090019 | 63 | 284 | 1.0 | 2.0 | 0.02 | 0.15 | 0.02 | 79 | 1006.6 |
| 20260505085057 | 63 | 320 | 0.0 | 2.0 | 0.02 | 0.15 | 0.02 | 79 | 1006.5 |
| 20260505084017 | 64 | 22 | 1.0 | 2.0 | 0.02 | 0.15 | 0.02 | 79 | 1006.6 |
| 20260505083100 | 65 | 298 | 1.0 | 2.0 | 0.02 | 0.15 | 0.02 | 76 | 1006.6 |
| 20260505082020 | 66 | 267 | 1.0 | 2.0 | 0.02 | 0.15 | 0.02 | 71 | 1006.7 |
| 20260505081020 | 67 | 342 | 0.0 | 1.0 | 0.02 | 0.15 | 0.02 | 65 | 1006.8 |
| 20260505080057 | 67 | 296 | 0.0 | 1.0 | 0.00 | 0.13 | 0.00 | 61 | 1006.9 |
| 20260505075018 | 68 | 291 | 0.0 | 1.0 | 0.00 | 0.13 | 0.00 | 59 | 1006.8 |
| 20260505074018 | 69 | 296 | 1.0 | 2.0 | 0.00 | 0.13 | 0.00 | 59 | 1006.8 |
| 20260505073018 | 69 | 285 | 1.0 | 3.0 | 0.00 | 0.13 | 0.00 | 58 | 1006.9 |
| 20260505072018 | 70 | 279 | 1.0 | 3.0 | 0.00 | 0.13 | 0.00 | 59 | 1007.0 |